Погода в Супетаре

Хорватия     43°23′07″N   16°33′20″E
темп.,
°C
ветер,
м/с
пор.,
м/с
влажн.,
%
обл.,
%
осадки,
мм/ч
давл.,
гПа
погр.,
м
17 августа, ср
ср1723:00+22в22690 0.0 101430
02:00+21св22690 0.0 101434
05:00+20св22700 0.0 101343
08:00+23св22580 0.0 1014135
11:00+27юз32470 0.0 1014716
14:00+26юз33540 0.0 1014531
17:00+26юз22570 0.0 1013314
20:00+23ссз11750 0.0 101330
18 августа, чт
чт1823:00+24св22610 0.0 101314
02:00+22ссв11650 0.0 101311
05:00+22св33600 0.0 101228
08:00+26всв23480 0.0 101297
11:00+30юз323630 0.0 1013563
14:00+31ююз333521 0.0 1011538
17:00+30ю22403 0.0 1010318
20:00+28всв22425 0.0 100913
19 августа, пт
пт1923:00+25всв43494 0.2 100926
02:00+25всв554842 0.2 100849
05:00+24сз335275 0.0 100929
08:00+27св344265 0.0 100899
11:00+28ююв5104520 0.3 1008571
14:00+25вюв577722 0.9 1009267
17:00+28ю33550 0.0 1008650
20:00+24з23770 0.0 100938
20 августа, сб
сб2023:00+23с227410 0.1 100918
02:00+22св227193 0.3 100915
05:00+21ссв22746 1.7 101032
08:00+23ссв226928 2.0 1011106
11:00+26юз32565 0.1 1011768
14:00+26юз44625 0.1 1011610
17:00+26сз246091 1.2 1011625
20:00+23ссв236865 1.2 101150
21 августа, вс
вс2123:00+22ссв44680 0.0 101154
02:00+21св44680 0.0 101275
05:00+20ссв58673 0.0 1011196
08:00+23ссв510530 0.0 1012741
11:00+27ссв58430 0.0 10111181
14:00+29ссв46400 0.0 10101452
17:00+28св68420 0.0 10101055
20:00+24св33520 0.0 101028